Stündliche Wetter Halychany

Heute, 2 Oktober, Freitag

Zeit Temperatur Niederschläge Wind Luftdruck Luftfeuchtigkeit
00:00 +11°C° 0.1 mm 3 m/S 735 mmHg 89%
01:00 +11°C° 0.1 mm 3 m/S 736 mmHg 89%
02:00 +11°C° 0.1 mm 3 m/S 736 mmHg 90%
03:00 +11°C° 0.1 mm 3 m/S 736 mmHg 90%
04:00 +11°C° 0.1 mm 3 m/S 736 mmHg 90%
05:00 +11°C° 0.1 mm 3 m/S 736 mmHg 90%
06:00 +11°C° 0 mm 3 m/S 736 mmHg 89%
07:00 +11°C° 0 mm 3 m/S 736 mmHg 89%
08:00 +11°C° 0 mm 3 m/S 737 mmHg 88%
09:00 +12°C° 0 mm 3 m/S 737 mmHg 85%
10:00 +13°C° 0 mm 4 m/S 737 mmHg 81%
11:00 +14°C° 0 mm 4 m/S 737 mmHg 78%
12:00 +15°C° 0.2 mm 4 m/S 737 mmHg 75%
13:00 +17°C° 0.2 mm 3 m/S 738 mmHg 73%
14:00 +18°C° 0.2 mm 3 m/S 738 mmHg 70%
15:00 +17°C° 0.2 mm 3 m/S 738 mmHg 73%
16:00 +17°C° 0.2 mm 3 m/S 738 mmHg 76%
17:00 +16°C° 0.2 mm 2 m/S 738 mmHg 79%
18:00 +16°C° 0 mm 2 m/S 738 mmHg 82%
19:00 +15°C° 0 mm 2 m/S 739 mmHg 85%
20:00 +14°C° 0 mm 2 m/S 739 mmHg 88%
21:00 +14°C° 0 mm 2 m/S 739 mmHg 88%
22:00 +13°C° 0 mm 2 m/S 739 mmHg 89%
23:00 +13°C° 0 mm 2 m/S 739 mmHg 89%

Morgen, 3 Oktober, Samstag

Zeit Temperatur Niederschläge Wind Luftdruck Luftfeuchtigkeit
00:00 +12°C° 0 mm 3 m/S 739 mmHg 88%
01:00 +12°C° 0 mm 3 m/S 739 mmHg 87%
02:00 +13°C° 0 mm 3 m/S 740 mmHg 86%
03:00 +13°C° 0.3 mm 3 m/S 740 mmHg 87%
04:00 +13°C° 0.3 mm 3 m/S 739 mmHg 88%
05:00 +13°C° 0.3 mm 3 m/S 739 mmHg 89%
06:00 +13°C° 0.1 mm 3 m/S 739 mmHg 87%
07:00 +14°C° 0.1 mm 4 m/S 739 mmHg 84%
08:00 +14°C° 0.1 mm 5 m/S 739 mmHg 82%
09:00 +16°C° 0 mm 5 m/S 739 mmHg 76%
10:00 +17°C° 0 mm 6 m/S 740 mmHg 70%
11:00 +20°C° 0 mm 6 m/S 740 mmHg 65%
12:00 +21°C° 0 mm 6 m/S 739 mmHg 62%
13:00 +22°C° 0 mm 6 m/S 739 mmHg 60%
14:00 +23°C° 0 mm 7 m/S 739 mmHg 58%
15:00 +22°C° 0 mm 6 m/S 739 mmHg 62%
16:00 +21°C° 0 mm 6 m/S 739 mmHg 65%
17:00 +20°C° 0 mm 5 m/S 739 mmHg 69%
18:00 +19°C° 0 mm 5 m/S 739 mmHg 70%
19:00 +17°C° 0 mm 6 m/S 739 mmHg 71%
20:00 +16°C° 0 mm 6 m/S 739 mmHg 73%
21:00 +16°C° 0 mm 5 m/S 739 mmHg 72%
22:00 +16°C° 0 mm 5 m/S 739 mmHg 71%
23:00 +17°C° 0 mm 4 m/S 739 mmHg 70%

übermorgen, 4 Oktober, Sonntag

Zeit Temperatur Niederschläge Wind Luftdruck Luftfeuchtigkeit
00:00 +15°C° 0 mm 4 m/S 739 mmHg 71%
01:00 +15°C° 0 mm 4 m/S 739 mmHg 72%
02:00 +15°C° 0 mm 4 m/S 739 mmHg 72%
03:00 +14°C° 0 mm 4 m/S 739 mmHg 74%
04:00 +14°C° 0 mm 4 m/S 739 mmHg 75%
05:00 +14°C° 0 mm 5 m/S 739 mmHg 76%
06:00 +14°C° 0 mm 5 m/S 738 mmHg 77%
07:00 +15°C° 0 mm 6 m/S 738 mmHg 78%
08:00 +15°C° 0 mm 6 m/S 738 mmHg 79%
09:00 +17°C° 0.1 mm 6 m/S 739 mmHg 75%
10:00 +18°C° 0.1 mm 7 m/S 739 mmHg 71%
11:00 +21°C° 0.1 mm 7 m/S 739 mmHg 67%
12:00 +22°C° 0 mm 6 m/S 739 mmHg 65%
13:00 +23°C° 0 mm 6 m/S 739 mmHg 62%
14:00 +24°C° 0 mm 6 m/S 739 mmHg 60%
15:00 +23°C° 0 mm 5 m/S 739 mmHg 65%
16:00 +22°C° 0 mm 4 m/S 739 mmHg 69%
17:00 +22°C° 0 mm 4 m/S 739 mmHg 74%
18:00 +21°C° 0 mm 3 m/S 740 mmHg 77%
19:00 +20°C° 0 mm 3 m/S 740 mmHg 79%
20:00 +19°C° 0 mm 3 m/S 740 mmHg 82%
21:00 +18°C° 0.1 mm 3 m/S 740 mmHg 82%
22:00 +18°C° 0.1 mm 3 m/S 741 mmHg 83%
23:00 +18°C° 0.1 mm 3 m/S 741 mmHg 84%

5 Oktober, Montag

Zeit Temperatur Niederschläge Wind Luftdruck Luftfeuchtigkeit
00:00 +18°C° 0 mm 3 m/S 741 mmHg 82%
01:00 +18°C° 0 mm 4 m/S 740 mmHg 81%
02:00 +17°C° 0 mm 5 m/S 740 mmHg 80%
03:00 +17°C° 0.1 mm 4 m/S 740 mmHg 82%
04:00 +17°C° 0.1 mm 4 m/S 740 mmHg 84%
05:00 +15°C° 0.1 mm 4 m/S 740 mmHg 87%
06:00 +16°C° 0.1 mm 5 m/S 740 mmHg 86%
07:00 +16°C° 0.1 mm 5 m/S 740 mmHg 86%
08:00 +16°C° 0.1 mm 5 m/S 740 mmHg 86%
09:00 +19°C° 0 mm 6 m/S 740 mmHg 82%
10:00 +20°C° 0 mm 6 m/S 740 mmHg 77%
11:00 +22°C° 0 mm 6 m/S 740 mmHg 73%
12:00 +22°C° 0 mm 6 m/S 740 mmHg 70%
13:00 +23°C° 0 mm 7 m/S 740 mmHg 67%
14:00 +24°C° 0 mm 7 m/S 740 mmHg 65%
15:00 +23°C° 0.1 mm 6 m/S 740 mmHg 70%
16:00 +22°C° 0.1 mm 4 m/S 740 mmHg 75%
17:00 +20°C° 0.1 mm 3 m/S 740 mmHg 79%
18:00 +20°C° 0.1 mm 3 m/S 740 mmHg 78%
19:00 +20°C° 0.1 mm 4 m/S 740 mmHg 77%
20:00 +19°C° 0.1 mm 4 m/S 740 mmHg 76%
21:00 +19°C° 0.3 mm 4 m/S 740 mmHg 78%
22:00 +19°C° 0.3 mm 4 m/S 740 mmHg 80%
23:00 +19°C° 0.3 mm 4 m/S 740 mmHg 81%

6 Oktober, Dienstag

Zeit Temperatur Niederschläge Wind Luftdruck Luftfeuchtigkeit
00:00 +18°C° 0 mm 4 m/S 740 mmHg 82%
01:00 +18°C° 0 mm 4 m/S 740 mmHg 83%
02:00 +18°C° 0 mm 4 m/S 741 mmHg 84%
03:00 +17°C° 0 mm 4 m/S 741 mmHg 84%
04:00 +17°C° 0 mm 4 m/S 741 mmHg 85%
05:00 +17°C° 0 mm 4 m/S 741 mmHg 85%
06:00 +17°C° 0 mm 4 m/S 741 mmHg 86%
07:00 +17°C° 0 mm 3 m/S 741 mmHg 86%
08:00 +17°C° 0 mm 3 m/S 742 mmHg 87%
09:00 +17°C° 0.2 mm 3 m/S 742 mmHg 88%
10:00 +17°C° 0.2 mm 3 m/S 742 mmHg 88%
11:00 +18°C° 0.2 mm 3 m/S 742 mmHg 89%
12:00 +17°C° 1.1 mm 3 m/S 741 mmHg 90%
13:00 +17°C° 1.1 mm 3 m/S 741 mmHg 91%
14:00 +17°C° 1.1 mm 3 m/S 740 mmHg 92%
15:00 +18°C° 0.1 mm 3 m/S 740 mmHg 89%
16:00 +18°C° 0.1 mm 3 m/S 739 mmHg 85%
17:00 +19°C° 0.1 mm 4 m/S 739 mmHg 82%
18:00 +18°C° 0 mm 4 m/S 738 mmHg 80%
19:00 +18°C° 0 mm 4 m/S 738 mmHg 77%
20:00 +17°C° 0 mm 5 m/S 738 mmHg 75%
21:00 +17°C° 0 mm 5 m/S 738 mmHg 75%
22:00 +17°C° 0 mm 5 m/S 738 mmHg 74%
23:00 +17°C° 0 mm 6 m/S 738 mmHg 73%

7 Oktober, Mittwoch

Zeit Temperatur Niederschläge Wind Luftdruck Luftfeuchtigkeit
00:00 +16°C° 0 mm 5 m/S 739 mmHg 77%
01:00 +16°C° 0 mm 5 m/S 739 mmHg 81%
02:00 +15°C° 0 mm 4 m/S 739 mmHg 85%
03:00 +15°C° 0.5 mm 4 m/S 740 mmHg 88%
04:00 +14°C° 0.5 mm 3 m/S 740 mmHg 91%
05:00 +14°C° 0.5 mm 3 m/S 740 mmHg 94%
06:00 +15°C° 0.1 mm 2 m/S 741 mmHg 93%
07:00 +15°C° 0.1 mm 2 m/S 741 mmHg 93%
08:00 +15°C° 0.1 mm 1 m/S 742 mmHg 93%
09:00 +15°C° 0.1 mm 1 m/S 742 mmHg 91%
10:00 +15°C° 0.1 mm 1 m/S 742 mmHg 89%
11:00 +16°C° 0.1 mm 1 m/S 743 mmHg 87%
12:00 +16°C° 0 mm 1 m/S 743 mmHg 84%
13:00 +17°C° 0 mm 2 m/S 743 mmHg 82%
14:00 +18°C° 0 mm 2 m/S 743 mmHg 79%
15:00 +17°C° 0 mm 2 m/S 743 mmHg 83%
16:00 +16°C° 0 mm 2 m/S 743 mmHg 86%
17:00 +16°C° 0 mm 2 m/S 743 mmHg 90%
18:00 +15°C° 0 mm 2 m/S 743 mmHg 92%
19:00 +15°C° 0 mm 2 m/S 743 mmHg 94%
20:00 +15°C° 0 mm 2 m/S 743 mmHg 96%
21:00 +15°C° 1.1 mm 2 m/S 743 mmHg 96%
22:00 +15°C° 1.1 mm 2 m/S 743 mmHg 97%
23:00 +15°C° 1.1 mm 2 m/S 742 mmHg 97%
Mehr zeigen